Location: Goettingen
(51.5300°N, 9.9433°E)
Time: 05:54:18
(UTC+02:00)

ISS - Pass Details

Date: 01 April 2020
Orbit: 417 x 423 km, 51.6° (Epoch: 29 March)

Event Time Altitude Azimuth Distance (km) Brightness Sun altitude
Rises 22:34:08 0° 278° (W) 2,362 0.9 -22.9°
Reaches altitude 10° 22:37:17 10° 246° (WSW) 1,494 -0.7 -23.3°
Enters shadow 22:37:46 11° 238° (WSW) 1,426 -0.9 -23.3°
